Regional Weather Roundup
Issued by NWS

Home | Current Version | Previous Version | Text Only | Print | Product List | Glossary On
Versions: 1 2 3 4 5 6 7 8 9 10 11 12 13 14 15 16 17 18 19 20 21 22 23 24 25 26 27 28 29 30 31 32 33 34 35 36 37 38 39 40 41 42 43 44 45 46 47 48 49 50
000
ASUS43 KDTX 230701
RWRMI
MICHIGAN HOURLY REGIONAL WEATHER ROUNDUP
NATIONAL WEATHER SERVICE DETROIT/PONTIAC MI
300 AM EDT THU OCT 23 2014

NOTE: "FAIR" INDICATES FEW OR NO CLOUDS BELOW 12,000 FEET WITH NO
SIGNIFICANT WEATHER AND/OR OBSTRUCTION TO VISIBILITY.

MIZ047>049-052>055-059>063-066>070-074>076-081>083-230800-
SOUTHEAST LOWER MICHIGAN

CITY           SKY/WX    TMP DP  RH WIND       PRES   REMARKS
ADRIAN         CLEAR     34  32  92 CALM      30.28S
ALMA           FOG       32  31  98 CALM      30.29F VSB 1/4
ANN ARBOR      CLEAR     32  30  92 CALM      30.27S
BAD AXE        FOG       27  27 100 CALM      30.29S VSB 1/2
CARO           CLEAR     30  28  95 CALM      30.28S
DETROIT CITY   CLEAR     42  36  79 NW5       30.27S
DETROIT        CLEAR     39  37  92 CALM      30.27F
FLINT          FAIR      33  29  85 CALM      30.29S
GROSSE ILE     CLEAR     41  37  87 N6        30.25F
HILLSDALE      FOG       31  31 100 NW3       30.27S VSB 1/4
HOWELL         FOG       33  33  99 CALM      30.27S VSB 1

CITY           SKY/WX    TMP DP  RH WIND       PRES   REMARKS
JACKSON        PTCLDY    30  28  92 CALM      30.28S
LAMBERTVILLE   FOG       36  32  87 CALM      30.27S VSB 3/4
LANSING        FOG       32  30  92 CALM      30.29S VSB 3/4
LAPEER         PTSUNNY   30  29  98 CALM      30.28S FOG
MASON          FOG       29  29  99 CALM      30.28S VSB 1/2
MONROE         CLEAR     36  36 100 CALM      30.25F FOG
MT. CLEMENS    CLEAR     37  37  99 NW7       30.24F WCI  32
PONTIAC        CLEAR     37  34  89 CALM      30.26F
PORT HOPE        N/A     34  32  92 W3        30.26S
PORT HURON     CLEAR     36  36 100 NW7       30.26S WCI  30
TRI CITIES     CLEAR     35  32  88 CALM      30.30S
TROY           CLEAR     40  36  86 CALM      30.28S
SAGINAW HB     CLEAR     34  34 100 CALM      30.29R
$$
MIZ043>046-050>051-056>058-064>065-071>073-077>080-230800-
SOUTHWEST LOWER MICHIGAN

CITY           SKY/WX    TMP DP  RH WIND       PRES   REMARKS
BATTLE CREEK   PTCLDY    34  31  88 CALM      30.28S
BENTON HARBOR  CLEAR     29  28  96 E5        30.27S FOG     WCI  24
BIG RAPIDS     FOG       29  29 100 CALM      30.28S VSB 1/2
COLDWATER      FOG       32  31  98 CALM      30.28S VSB 1/4
FREMONT        FAIR      33  33  99 E3        30.27F FOG
HOLLAND        CLEAR     35  32  88 E5        30.28F FOG     WCI  31
GRAND RAPIDS   CLEAR     33  31  92 CALM      30.28F
IONIA          FAIR      38  37  97 CALM      30.28S
KALAMAZOO      PTCLDY    30  28  92 CALM      30.28F FOG
LUDINGTON      CLEAR     30  29  96 E3        30.27S FOG
MARSHALL       CLOUDY    28  28  99 CALM      30.27F FOG
MOUNT PLEASANT CLEAR     29  29  98 CALM      30.28S FOG
MUSKEGON       CLEAR     31  28  89 SE5       30.28F WCI  26
SOUTH HAVEN    CLEAR     32  32  99 CALM      30.27F FOG
$$
MIZ016>042-230800-
NORTHERN LOWER MICHIGAN

CITY           SKY/WX    TMP DP  RH WIND       PRES   REMARKS
ALPENA         FOG       27  26  96 CALM      30.28F VSB 1/4
BEAVER ISLAND  CLEAR     30  29  99 SE3       30.25S
BELLAIRE       CLEAR     28  28  96 CALM      30.29S
CADILLAC       MOCLDY    25  24  94 CALM      30.26S
CHARLEVOIX     CLEAR     33  33 100 SE5       30.29F WCI  28
FRANKFORT      CLEAR     30  28  90 CALM      30.26S
GAYLORD        MOCLDY    28  24  85 CALM      30.26S
GRAYLING       CLEAR     23  22  98 CALM      30.28S
HARBOR SPRINGS CLEAR     31  29  96 CALM      30.27S
HOUGHTON LAKE  MOCLDY    26  25  96 CALM      30.28S
MANISTEE       CLEAR     30  27  86 E3        30.27S
OSCODA         CLEAR     27  26  96 CALM      30.28S
PELLSTON       CLEAR     25  23  92 CALM      30.28S
TRAVERSE CITY  CLEAR     32  30  92 S3        30.26F
$$
MIZ007>008-015-230800-
EASTERN UPPER MICHIGAN

CITY           SKY/WX    TMP DP  RH WIND       PRES   REMARKS
KINROSS        CLEAR     30  30 100 CALM      30.26F
MACKINAC ISLAN CLEAR     40  37  89 S8        30.26S WCI  34
NEWBERRY       CLEAR     29  29  99 SE6       30.23F FOG     WCI  23
S. S. MARIE    CLEAR     32  30  92 E5        30.26S WCI  27
MUNISING         N/A     39  34  82 S7        30.19F WCI  34
$$
MIZ004>006-011>014-085-230800-
CENTRAL UPPER MICHIGAN

CITY           SKY/WX    TMP DP  RH WIND       PRES   REMARKS
MANISTIQUE     CLEAR     44  37  76 S8        30.22F
ESCANABA       CLEAR     28  25  86 CALM      30.20F
MENOMINEE      CLEAR     39  37  93 S5        30.20F
SAWYER-GWINN   SNOW      37  36  96 S15G21    30.17F VSB 1/2 WCI  27
$$
MIZ001>003-009>011-084-230800-
WESTERN UPPER MICHIGAN

CITY           SKY/WX    TMP DP  RH WIND       PRES   REMARKS
IRON MOUNTAIN  CLOUDY    39  37  92 S7        30.18R WCI  34
HOUGHTON       CLOUDY    43  34  70 S6        30.11S
COPPER HARBOR    N/A     43  39  86 VRB3      30.12R
IRONWOOD       CLOUDY    48  36  61 S8        30.03F
$$

ABBREVIATIONS USED IN REMARKS
   TC - TEMPERATURE IN CELSIUS
  WCI - WIND CHILL INDEX
   HX - HEAT INDEX
  VSB - VISIBILITY




USA.gov is the U.S. government's official web portal to all federal, state and local government web resources and services.